User: anonymous   Login
Location: Campillo
(40.8621°N, 4.2488°W)
Time: 00:41:36
(UTC+00:00)
Language:

CZ-4 R/B - Orbit

View from above orbital plane
View from above orbital plane
View from above satellite
View from above satellite

Ground track
Ground track

The orbit data is extracted from the following two-line orbital elements,

1 29507U 06046C   21213.68897492  .00001090  00000-0  88458-4 0  9998
2 29507  97.7544 239.4933 0046139 222.8044 136.9584 15.01024476806942
Epoch (UTC): 01 August 2021 16:32:07
Eccentricity: 0.0046139
inclination: 97.7544°
perigee height: 532 km
apogee height: 596 km
right ascension of ascending node: 239.4933°
argument of perigee: 222.8044°
revolutions per day: 15.01024476
mean anomaly at epoch: 136.9584°
orbit number at epoch: 80694

The dashed part of the orbit path shows where the satellite is in the earth's shadow,  

DLR